CDT,Max TemperatureF,Mean TemperatureF,Min TemperatureF,Max Dew PointF,MeanDew PointF,Min DewpointF,Max Humidity, Mean Humidity, Min Humidity, Max Sea Level PressureIn, Mean Sea Level PressureIn, Min Sea Level PressureIn, Max VisibilityMiles, Mean VisibilityMiles, Min VisibilityMiles, Max Wind SpeedMPH, Mean Wind SpeedMPH, Max Gust SpeedMPH,PrecipitationIn, CloudCover, Events, WindDirDegrees
2011-10-1,70,57,45,44,40,34,86,57,27,30.29,30.21,30.13,10,10,10,8,3,,0.00,0,,12
2011-10-2,71,56,42,42,38,31,89,55,23,30.31,30.24,30.19,10,10,10,5,1,,0.00,0,,41
2011-10-3,77,59,43,46,42,40,93,56,27,30.29,30.22,30.18,10,10,10,5,0,,0.00,0,,115
2011-10-4,80,64,48,50,44,41,89,56,25,30.29,30.22,30.17,10,10,9,5,1,,0.00,0,,120
2011-10-5,80,65,50,48,45,41,86,54,27,30.24,30.17,30.10,10,10,7,8,2,,0.00,0,,118
2011-10-6,82,68,55,54,50,47,86,54,31,30.16,30.12,30.07,10,10,7,13,4,20,0.00,0,,126
2011-10-7,82,72,61,56,51,48,75,53,29,30.23,30.16,30.12,10,10,7,13,6,21,0.00,0,,128
2011-10-8,82,70,59,54,53,49,81,57,31,30.23,30.17,30.13,10,8,5,12,6,20,0.00,0,,122
2011-10-9,80,68,57,56,53,48,87,58,38,30.21,30.14,30.08,10,9,7,15,7,21,0.00,1,,107
2011-10-10,79,69,60,58,55,48,83,66,50,30.11,30.04,29.98,10,10,8,8,5,,0.00,1,,114
2011-10-11,79,68,57,62,58,55,93,73,48,29.98,29.91,29.83,10,9,4,7,1,,0.00,2,Rain,109
2011-10-12,66,60,57,62,59,55,100,93,83,29.87,29.79,29.68,10,6,2,7,3,20,0.68,6,Rain-Thunderstorm,171
2011-10-13,73,64,53,56,50,40,97,70,31,29.86,29.77,29.70,10,10,8,12,4,22,0.01,1,Thunderstorm,299
2011-10-14,75,60,48,48,44,37,83,57,29,29.99,29.92,29.85,10,10,10,8,1,,0.00,0,,274
2011-10-15,75,60,46,50,42,37,93,55,25,30.16,30.07,30.02,10,10,10,8,1,,0.00,0,,172
2011-10-16,87,72,57,52,48,40,59,44,28,30.00,29.93,29.86,10,10,10,13,7,22,0.00,0,,196
2011-10-17,73,63,53,51,46,41,75,53,40,29.96,29.85,29.74,10,10,8,12,6,18,0.00,0,,86
2011-10-18,55,52,44,49,44,35,100,87,48,29.92,29.88,29.79,10,8,2,10,6,22,0.51,7,Rain-Thunderstorm,337
2011-10-19,46,42,39,35,34,33,79,69,59,29.96,29.91,29.85,10,10,10,10,6,21,0.00,6,,315
2011-10-20,55,47,39,35,33,31,86,61,40,30.12,30.01,29.94,10,10,10,12,5,20,0.00,1,,295
2011-10-21,66,50,34,43,36,33,100,74,33,30.24,30.17,30.12,10,6,0,5,1,,0.00,1,Fog,154
2011-10-22,75,58,42,49,43,38,89,59,30,30.15,30.08,30.00,10,10,9,4,1,,0.00,0,,126
2011-10-23,72,62,51,52,50,49,93,70,45,30.08,30.01,29.97,10,9,6,8,3,,0.00,1,,158
2011-10-24,77,64,50,56,52,48,100,73,39,30.19,30.14,30.09,10,8,1,7,3,,0.01,0,,186
2011-10-25,81,68,55,58,55,51,96,67,45,30.13,30.01,29.89,10,10,7,16,8,25,0.00,0,,177
2011-10-26,78,64,50,63,56,48,93,78,56,29.95,29.88,29.83,10,9,7,9,4,16,0.03,5,Rain,269
2011-10-27,50,48,46,50,46,42,100,92,77,30.14,30.04,29.94,10,8,3,7,3,,0.43,8,Rain,351
2011-10-28,57,48,39,46,37,26,100,71,30,30.21,30.17,30.12,10,9,5,12,4,16,0.09,3,Rain,8
2011-10-29,64,49,34,38,33,28,93,58,29,30.26,30.17,30.09,10,10,7,6,2,,0.00,0,,181
2011-10-30,66,54,43,39,35,33,71,50,30,30.17,30.11,30.03,10,10,10,14,6,21,0.00,1,,195
2011-10-31,69,52,36,39,33,30,89,51,24,30.19,30.14,30.10,10,10,8,7,2,,0.00,0,,184